Tracking 27112 objects as of 26-Mar-2023
HD Live streaming from Space Station
objects crossing your sky now

STARLINK-1174

Track STARLINK-1174 now!
10-day predictions
STARLINK-1174 is classified as:


NORAD ID: 45075
Int'l Code: 2020-006AH
Perigee: 553.5 km
Apogee: 555.2 km
Inclination: 53.1 °
Period: 95.6 minutes
Semi major axis: 6925 km
RCS: Unknown
Launch date: January 29, 2020
Source: United States (US)
Launch site: AIR FORCE EASTERN TEST RANGE (AFETR)
Your satellite tracking list
Your tracking list is empty




NASA's NSSDC Master Catalog

Two Line Element Set (TLE):
1 45075U 20006AH  23084.70998629 -.00005066  00000-0 -32138-3 0  9995
2 45075  53.0537  74.8316 0001198 101.6936 258.4187 15.06409452173967
Source of the keplerian elements: AFSPC